Location: Namasale
(1.5000°N, 32.6167°E)
Time: 02:04:57
(UTC+00:00)

N. Korean satellite - Pass Details

Date: 10 December 2021
Orbit: 447 x 490 km, 97.3° (Epoch: 27 January)

Event Time Altitude Azimuth Distance (km) Brightness Sun altitude
Rises 02:10:28 0° 31° (NNE) 2,447 10.2 -21.7°
Reaches altitude 10° 02:12:43 10° 45° (NE) 1,584 9.4 -21.1°
Maximum altitude 02:15:32 24° 101° (E) 985 8.9 -20.5°
Drops below altitude 10° 02:18:23 10° 157° (SSE) 1,610 9.8 -19.9°
Sets 02:20:42 0° 171° (S) 2,497 10.6 -19.3°
